Terminal Aerodrome Forecast
Issued by NWS Cleveland, OH

Home | Current Version | Previous Version | Graphics & Text | Print | Product List | Glossary On
Versions: 1 2 3 4 5 6 7 8 9 10 11 12 13 14 15 16 17 18 19 20 21 22 23 24
585
FTUS41 KCLE 250157 AAA
TAFMFD
TAF AMD
KMFD 250157Z 2502/2524 11012KT 5SM -SHRA OVC009
     FM250900 13008KT P6SM BKN007
     FM251200 14009KT 5SM -SHRA BKN007
     FM251300 14009KT 5SM -SHRA BKN015
     FM251700 17006KT 6SM -SHRA OVC015
     FM252100 25006KT 5SM -SHRA OVC007=

USA.gov is the U.S. government's official web portal to all federal, state and local government web resources and services.